Regional Weather Roundup
Issued by NWS

Home | Current Version | Previous Version | Text Only | Print | Product List | Glossary Off
Versions: 1 2 3 4 5 6 7 8 9 10 11 12 13 14 15 16 17 18 19 20 21 22 23 24 25 26 27 28 29 30 31 32 33 34 35 36 37 38 39 40 41 42 43 44 45 46 47 48 49 50

000
ASUS45 KSLC 191310
RWRUT

UTAH REGIONAL WEATHER ROUNDUP
NATIONAL WEATHER SERVICE SALT LAKE CITY UT
700 AM MDT FRI SEP 19 2014

UTZ001>011-023>025-191400-

NORTHERN UTAH

CITY           SKY/WX    TMP DP  RH WIND       PRES   REMARKS
HILL AFB       CLOUDY    64  50  59 E10       30.03R
LOGAN          CLEAR     55  55 100 CALM      30.04R
OGDEN          PTCLDY    62  56  80 NW7       30.01R
PROVO AIRPORT  MOCLDY    61  55  82 NE6       30.02R
SALT LAKE CITY MOCLDY    63  58  83 N6        29.99S
VERNAL         MOCLDY    63  45  51 N8        30.06R
WENDOVER       CLOUDY    64  48  55 CALM      30.02R
HEBER CITY     LGT RAIN  54  50  87 CALM      30.10S
WEST JORDAN    MOCLDY    63  57  82 N6        30.01S

$$

UTZ012>022-026-027-191400-

SOUTHERN UTAH

CITY           SKY/WX    TMP DP  RH WIND       PRES   REMARKS
BRYCE CANYON   MOCLDY    49  45  86 CALM      30.20R
CEDAR CITY     PTCLDY    55  48  77 CALM      30.06R
MILFORD        MOCLDY    63  51  65 S3        30.02R
MOAB/CYNLANDS  CLEAR     62  38  40 S3        29.95R
PRICE          CLEAR     62  41  46 N6        30.05R
ST GEORGE      PTSUNNY   73  52  46 SW3       29.90S
KANAB            N/A     61  50  67 NE5       30.06R

$$

REGIONAL REPORTS     COLORADO/ARIZONA

CITY           SKY/WX    TMP DP  RH WIND       PRES   REMARKS
CRAIG, CO      PTCLDY    47  39  74 NW6       30.14R
GRAND JUNCTION CLEAR     56  42  59 SE6       30.01R
RIFLE          MOCLDY    50  42  74 CALM      30.08R
MONTROSE       CLEAR     57  43  59 SE7       30.10R
CORTEZ         CLEAR     46  42  86 CALM      30.11R
PAGE, AZ       MOCLDY    73  51  46 CALM      29.96R
GRAND CANYON   PTCLDY    51  49  92 CALM      30.15R
KINGMAN        CLEAR     67  40  37 VRB3      29.91R
FLAGSTAFF      CLOUDY    55  53  93 CALM      30.17R

$$

REGIONAL REPORTS    NEVADA/IDAHO/WYOMING

CITY           SKY/WX    TMP DP  RH WIND       PRES   REMARKS
LAS VEGAS, NV  CLEAR     76  48  37 SW5       29.79R
ELY            PTCLDY    46  36  68 S9        30.13R
ELKO           CLEAR     48  45  89 CALM      30.07R FOG
POCATELLO, ID  CLEAR     56  47  71 SW12      30.05R
BURLEY         CLEAR     56  43  61 S6        30.04R
EVANSTON, WY   CLOUDY    51  48  89 S7        30.16F
ROCK SPRINGS   CLOUDY    53  49  86 S9        30.13S

$$



USA.gov is the U.S. government's official web portal to all federal, state and local government web resources and services.